Time,TemperatureF,DewpointF,PressureIn,WindDirection,WindDirectionDegrees,WindSpeedMPH,WindSpeedGustMPH,Humidity,HourlyPrecipIn,Conditions,Clouds,dailyrainin,SoftwareType,DateUTC
2013-07-09 00:01:00,75.3,68.3,29.91,ESE,115,0.0,1.0,79,0.00,,,0.00,VWS V14.01,2013-07-09 05:01:00,
2013-07-09 00:06:00,75.3,68.3,29.91,ESE,116,0.0,0.0,79,0.00,,,0.00,VWS V14.01,2013-07-09 05:06:00,
2013-07-09 00:11:00,75.2,68.2,29.91,ESE,115,0.0,0.0,79,0.00,,,0.00,VWS V14.01,2013-07-09 05:11:00,
2013-07-09 00:16:00,75.2,68.2,29.91,ESE,116,0.0,1.0,79,0.00,,,0.00,VWS V14.01,2013-07-09 05:16:00,
2013-07-09 00:21:00,75.2,68.2,29.91,ESE,114,0.0,2.0,79,0.00,,,0.00,VWS V14.01,2013-07-09 05:21:00,
2013-07-09 00:26:00,75.2,68.2,29.91,ESE,114,0.0,2.0,79,0.00,,,0.00,VWS V14.01,2013-07-09 05:26:00,
2013-07-09 00:31:00,75.2,68.2,29.91,ESE,114,0.0,0.0,79,0.00,,,0.00,VWS V14.01,2013-07-09 05:31:00,
2013-07-09 00:36:00,75.2,68.2,29.91,ESE,114,0.0,0.0,79,0.00,,,0.00,VWS V14.01,2013-07-09 05:36:00,
2013-07-09 00:41:00,75.1,68.2,29.91,ESE,114,0.0,2.0,79,0.00,,,0.00,VWS V14.01,2013-07-09 05:41:00,
2013-07-09 00:46:00,75.0,68.1,29.90,ESE,102,0.0,3.0,79,0.00,,,0.00,VWS V14.01,2013-07-09 05:46:00,
2013-07-09 00:51:00,75.0,68.1,29.90,ESE,102,0.0,3.0,79,0.00,,,0.00,VWS V14.01,2013-07-09 05:51:00,
2013-07-09 00:56:00,74.9,67.9,29.90,ESE,102,0.0,3.0,79,0.00,,,0.00,VWS V14.01,2013-07-09 05:56:00,
2013-07-09 01:01:00,74.9,67.9,29.90,ESE,102,0.0,0.0,79,0.00,,,0.00,VWS V14.01,2013-07-09 06:01:00,
2013-07-09 01:06:00,74.9,67.9,29.90,ESE,102,0.0,0.0,79,0.00,,,0.00,VWS V14.01,2013-07-09 06:06:00,
2013-07-09 01:11:00,74.9,67.9,29.90,ESE,102,0.0,0.0,79,0.00,,,0.00,VWS V14.01,2013-07-09 06:11:00,
2013-07-09 01:16:00,74.9,68.3,29.90,ESE,102,0.0,0.0,80,0.00,,,0.00,VWS V14.01,2013-07-09 06:16:00,
2013-07-09 01:21:00,74.8,67.9,29.90,ESE,102,0.0,0.0,79,0.00,,,0.00,VWS V14.01,2013-07-09 06:21:00,
2013-07-09 01:26:00,74.8,68.2,29.90,ESE,102,0.0,0.0,80,0.00,,,0.00,VWS V14.01,2013-07-09 06:26:00,
2013-07-09 01:31:00,74.7,68.1,29.90,ESE,102,0.0,0.0,80,0.00,,,0.00,VWS V14.01,2013-07-09 06:31:00,
2013-07-09 01:36:00,74.6,68.0,29.89,ESE,102,0.0,1.0,80,0.00,,,0.00,VWS V14.01,2013-07-09 06:36:00,
2013-07-09 01:41:00,74.5,67.9,29.89,ESE,102,0.0,1.0,80,0.00,,,0.00,VWS V14.01,2013-07-09 06:41:00,
2013-07-09 01:46:00,74.5,67.9,29.89,ESE,102,0.0,1.0,80,0.00,,,0.00,VWS V14.01,2013-07-09 06:46:00,
2013-07-09 01:52:00,74.4,67.8,29.89,ESE,102,0.0,1.0,80,0.00,,,0.00,VWS V14.01,2013-07-09 06:52:00,
2013-07-09 01:57:00,74.4,67.8,29.89,ESE,102,0.0,1.0,80,0.00,,,0.00,VWS V14.01,2013-07-09 06:57:00,
2013-07-09 02:02:00,74.3,67.7,29.89,ESE,102,0.0,0.0,80,0.00,,,0.00,VWS V14.01,2013-07-09 07:02:00,
2013-07-09 02:07:00,74.2,68.0,29.88,ESE,102,0.0,0.0,81,0.00,,,0.00,VWS V14.01,2013-07-09 07:07:00,
2013-07-09 02:12:00,74.1,67.9,29.88,ESE,102,0.0,0.0,81,0.00,,,0.00,VWS V14.01,2013-07-09 07:12:00,
2013-07-09 02:17:00,74.0,67.8,29.88,ESE,102,0.0,0.0,81,0.00,,,0.00,VWS V14.01,2013-07-09 07:17:00,
2013-07-09 02:22:00,73.9,68.1,29.88,ESE,102,0.0,0.0,82,0.00,,,0.00,VWS V14.01,2013-07-09 07:22:00,
2013-07-09 02:27:00,73.7,67.9,29.87,ESE,102,0.0,0.0,82,0.00,,,0.00,VWS V14.01,2013-07-09 07:27:00,
2013-07-09 02:32:00,73.6,67.8,29.87,ESE,102,0.0,0.0,82,0.00,,,0.00,VWS V14.01,2013-07-09 07:32:00,
2013-07-09 02:37:00,73.5,67.7,29.87,ESE,102,0.0,0.0,82,0.00,,,0.00,VWS V14.01,2013-07-09 07:37:00,
2013-07-09 02:42:00,73.3,67.5,29.87,ESE,102,0.0,0.0,82,0.00,,,0.00,VWS V14.01,2013-07-09 07:42:00,
2013-07-09 02:47:00,73.1,67.6,29.86,ESE,102,0.0,0.0,83,0.00,,,0.00,VWS V14.01,2013-07-09 07:47:00,
2013-07-09 02:52:00,73.1,67.6,29.86,ESE,102,0.0,0.0,83,0.00,,,0.00,VWS V14.01,2013-07-09 07:52:00,
2013-07-09 02:58:00,73.0,67.5,29.86,ESE,102,0.0,0.0,83,0.00,,,0.00,VWS V14.01,2013-07-09 07:58:00,
2013-07-09 03:03:00,73.0,67.5,29.86,ESE,102,0.0,0.0,83,0.00,,,0.00,VWS V14.01,2013-07-09 08:03:00,
2013-07-09 03:08:00,73.0,67.5,29.85,ESE,102,0.0,1.0,83,0.00,,,0.00,VWS V14.01,2013-07-09 08:08:00,
2013-07-09 03:13:00,73.0,67.5,29.85,ESE,102,0.0,3.0,83,0.00,,,0.00,VWS V14.01,2013-07-09 08:13:00,
2013-07-09 03:18:00,73.0,67.5,29.85,ESE,102,0.0,4.0,83,0.00,,,0.00,VWS V14.01,2013-07-09 08:18:00,
2013-07-09 03:23:00,72.9,67.4,29.85,ESE,102,1.0,4.0,83,0.00,,,0.00,VWS V14.01,2013-07-09 08:23:00,
2013-07-09 03:28:00,72.9,67.4,29.85,ESE,102,0.0,4.0,83,0.00,,,0.00,VWS V14.01,2013-07-09 08:28:00,
2013-07-09 03:30:00,72.9,67.4,29.85,ESE,102,0.0,4.0,83,0.00,,,0.00,VWS V15.00,2013-07-09 08:30:00,
2013-07-09 03:33:00,73.0,67.5,29.85,ESE,102,0.0,0.0,83,0.00,,,0.00,VWS V14.01,2013-07-09 08:33:00,
2013-07-09 03:38:00,72.9,67.4,29.85,ESE,102,0.0,0.0,83,0.00,,,0.00,VWS V14.01,2013-07-09 08:38:00,
2013-07-09 03:43:00,73.0,67.5,29.85,ESE,102,0.0,0.0,83,0.00,,,0.00,VWS V14.01,2013-07-09 08:43:00,
2013-07-09 03:48:00,73.1,67.6,29.85,ESE,102,0.0,0.0,83,0.00,,,0.00,VWS V14.01,2013-07-09 08:48:00,
2013-07-09 03:53:00,73.2,67.4,29.84,East,90,0.0,5.0,82,0.00,,,0.00,VWS V14.01,2013-07-09 08:53:00,
2013-07-09 03:58:00,73.3,67.5,29.84,East,94,0.0,5.0,82,0.00,,,0.00,VWS V14.01,2013-07-09 08:58:00,
2013-07-09 04:00:00,73.4,67.6,29.84,East,94,0.0,5.0,82,0.00,,,0.00,VWS V15.00,2013-07-09 09:00:00,
2013-07-09 04:03:00,73.4,67.6,29.83,East,94,0.0,3.0,82,0.00,,,0.00,VWS V14.01,2013-07-09 09:03:00,
2013-07-09 04:08:00,73.6,67.8,29.83,ENE,72,0.0,5.0,82,0.00,,,0.00,VWS V14.01,2013-07-09 09:08:00,
2013-07-09 04:13:00,73.7,67.5,29.83,East,83,0.0,5.0,81,0.00,,,0.00,VWS V14.01,2013-07-09 09:13:00,
2013-07-09 04:18:00,73.7,67.5,29.83,East,94,3.0,7.0,81,0.00,,,0.00,VWS V14.01,2013-07-09 09:18:00,
2013-07-09 04:24:00,73.7,67.5,29.82,East,97,0.0,7.0,81,0.00,,,0.00,VWS V14.01,2013-07-09 09:24:00,
2013-07-09 04:29:00,73.8,67.6,29.83,East,100,3.0,7.0,81,0.00,,,0.00,VWS V14.01,2013-07-09 09:29:00,
2013-07-09 04:30:00,73.9,67.7,29.83,East,100,5.0,7.0,81,0.00,,,0.00,VWS V15.00,2013-07-09 09:30:00,
2013-07-09 04:34:00,73.9,67.7,29.83,East,99,2.0,5.0,81,0.00,,,0.00,VWS V14.01,2013-07-09 09:34:00,
2013-07-09 04:39:00,73.9,67.7,29.83,East,100,1.0,6.0,81,0.00,,,0.00,VWS V14.01,2013-07-09 09:39:00,
2013-07-09 04:44:00,74.0,67.8,29.83,East,95,0.0,6.0,81,0.00,,,0.00,VWS V14.01,2013-07-09 09:44:00,
2013-07-09 04:49:00,74.0,67.8,29.84,East,93,0.0,6.0,81,0.00,,,0.00,VWS V14.01,2013-07-09 09:49:00,
2013-07-09 04:54:00,74.1,67.9,29.83,East,93,1.0,6.0,81,0.00,,,0.00,VWS V14.01,2013-07-09 09:54:00,
2013-07-09 04:59:00,74.2,68.0,29.83,East,92,0.0,6.0,81,0.00,,,0.00,VWS V14.01,2013-07-09 09:59:00,
2013-07-09 05:04:00,74.1,67.9,29.83,East,92,0.0,2.0,81,0.00,,,0.00,VWS V14.01,2013-07-09 10:04:00,
2013-07-09 05:09:00,74.1,67.9,29.83,East,91,0.0,4.0,81,0.00,,,0.00,VWS V14.01,2013-07-09 10:09:00,
2013-07-09 05:14:00,74.1,67.9,29.82,East,94,3.0,6.0,81,0.00,,,0.00,VWS V14.01,2013-07-09 10:14:00,
2013-07-09 05:19:00,74.0,67.8,29.82,East,96,2.0,6.0,81,0.00,,,0.00,VWS V14.01,2013-07-09 10:19:00,
2013-07-09 05:24:00,74.0,67.8,29.82,East,96,0.0,9.0,81,0.00,,,0.00,VWS V14.01,2013-07-09 10:24:00,
2013-07-09 05:29:00,74.1,67.9,29.81,East,96,0.0,9.0,81,0.00,,,0.00,VWS V14.01,2013-07-09 10:29:00,
2013-07-09 05:34:00,74.1,67.9,29.81,East,98,1.0,6.0,81,0.00,,,0.00,VWS V14.01,2013-07-09 10:34:00,
2013-07-09 05:39:00,74.2,68.0,29.80,East,98,3.0,10.0,81,0.00,,,0.00,VWS V14.01,2013-07-09 10:39:00,
2013-07-09 05:44:00,74.3,68.1,29.80,ESE,106,7.0,10.0,81,0.00,,,0.00,VWS V14.01,2013-07-09 10:44:00,
2013-07-09 05:49:00,74.4,68.2,29.80,ESE,107,0.0,10.0,81,0.00,,,0.00,VWS V14.01,2013-07-09 10:49:00,
2013-07-09 05:54:00,74.5,68.3,29.80,East,100,7.0,11.0,81,0.00,,,0.00,VWS V14.01,2013-07-09 10:54:00,
2013-07-09 05:59:00,74.7,68.5,29.80,East,89,4.0,11.0,81,0.00,,,0.00,VWS V14.01,2013-07-09 10:59:00,
2013-07-09 06:04:00,74.8,68.2,29.79,ESE,104,7.0,10.0,80,0.00,,,0.00,VWS V14.01,2013-07-09 11:04:00,
2013-07-09 06:09:00,74.9,68.3,29.79,ESE,102,5.0,10.0,80,0.00,,,0.00,VWS V14.01,2013-07-09 11:09:00,
2013-07-09 06:15:00,75.0,68.4,29.78,East,87,2.0,10.0,80,0.00,,,0.00,VWS V14.01,2013-07-09 11:15:00,
2013-07-09 06:20:00,75.1,68.5,29.78,East,96,0.0,10.0,80,0.00,,,0.00,VWS V14.01,2013-07-09 11:20:00,
2013-07-09 06:25:00,75.2,68.6,29.78,East,90,0.0,13.0,80,0.00,,,0.00,VWS V14.01,2013-07-09 11:25:00,
2013-07-09 06:30:00,75.3,68.7,29.78,East,99,4.0,13.0,80,0.00,,,0.00,VWS V14.01,2013-07-09 11:30:00,
2013-07-09 06:35:00,75.3,68.7,29.78,East,96,2.0,10.0,80,0.00,,,0.00,VWS V14.01,2013-07-09 11:35:00,
2013-07-09 06:40:00,75.4,68.8,29.77,ESE,108,6.0,10.0,80,0.00,,,0.00,VWS V14.01,2013-07-09 11:40:00,
2013-07-09 06:45:00,75.4,68.8,29.78,ESE,106,4.0,10.0,80,0.00,,,0.00,VWS V14.01,2013-07-09 11:45:00,
2013-07-09 06:50:00,75.5,68.9,29.77,East,94,0.0,10.0,80,0.00,,,0.00,VWS V14.01,2013-07-09 11:50:00,
2013-07-09 06:55:00,75.5,68.9,29.76,East,90,0.0,10.0,80,0.00,,,0.00,VWS V14.01,2013-07-09 11:55:00,
2013-07-09 07:00:00,75.5,68.9,29.77,ESE,102,0.0,10.0,80,0.00,,,0.00,VWS V14.01,2013-07-09 12:00:00,
2013-07-09 07:05:00,75.5,68.9,29.77,ESE,112,2.0,9.0,80,0.00,,,0.00,VWS V14.01,2013-07-09 12:05:00,
2013-07-09 07:10:00,75.5,68.9,29.77,ESE,112,1.0,9.0,80,0.00,,,0.00,VWS V14.01,2013-07-09 12:10:00,
2013-07-09 07:15:00,75.5,68.9,29.76,East,101,3.0,9.0,80,0.00,,,0.00,VWS V14.01,2013-07-09 12:15:00,
2013-07-09 07:20:00,75.4,69.2,29.77,ESE,105,1.0,9.0,81,0.00,,,0.00,VWS V14.01,2013-07-09 12:20:00,
2013-07-09 07:25:00,75.4,69.2,29.76,East,94,0.0,10.0,81,0.00,,,0.00,VWS V14.01,2013-07-09 12:25:00,
2013-07-09 07:30:00,75.4,69.2,29.77,SE,144,0.0,10.0,81,0.00,,,0.00,VWS V14.01,2013-07-09 12:30:00,
2013-07-09 07:35:00,75.4,69.2,29.78,SE,144,1.0,7.0,81,0.00,,,0.00,VWS V14.01,2013-07-09 12:35:00,
2013-07-09 07:40:00,75.2,69.3,29.80,South,191,22.0,26.0,82,0.06,,,0.06,VWS V14.01,2013-07-09 12:40:00,
2013-07-09 07:44:00,74.1,67.9,29.81,SSE,150,13.0,26.0,81,0.27,,,0.27,VWS V14.01,2013-07-09 12:44:00,
2013-07-09 07:49:00,71.7,65.9,29.82,WSW,254,9.0,35.0,82,0.55,,,0.55,VWS V14.01,2013-07-09 12:49:00,
2013-07-09 07:54:00,70.1,65.1,29.80,NW,304,12.0,35.0,84,0.61,,,0.61,VWS V14.01,2013-07-09 12:54:00,
2013-07-09 08:00:00,69.2,64.5,29.78,WNW,300,13.0,35.0,85,0.62,,,0.62,VWS V14.01,2013-07-09 13:00:00,
2013-07-09 08:05:00,68.8,64.4,29.77,NNW,346,10.0,11.0,86,0.63,,,0.63,VWS V14.01,2013-07-09 13:05:00,
2013-07-09 08:10:00,68.5,64.5,29.76,NW,326,4.0,11.0,87,0.64,,,0.64,VWS V14.01,2013-07-09 13:10:00,
2013-07-09 08:15:00,68.4,64.4,29.75,North,354,2.0,11.0,87,0.65,,,0.65,VWS V14.01,2013-07-09 13:15:00,
2013-07-09 08:20:00,68.3,64.6,29.74,NNE,12,0.0,11.0,88,0.66,,,0.66,VWS V14.01,2013-07-09 13:20:00,
2013-07-09 08:25:00,68.2,64.5,29.71,NNE,19,0.0,11.0,88,0.66,,,0.66,VWS V14.01,2013-07-09 13:25:00,
2013-07-09 08:30:00,68.2,64.5,29.69,NE,52,1.0,11.0,88,0.67,,,0.67,VWS V14.01,2013-07-09 13:30:00,
2013-07-09 08:35:00,68.2,64.5,29.68,ENE,70,3.0,10.0,88,0.67,,,0.67,VWS V14.01,2013-07-09 13:35:00,
2013-07-09 08:40:00,68.3,64.9,29.67,ENE,76,6.0,10.0,89,0.67,,,0.67,VWS V14.01,2013-07-09 13:40:00,
2013-07-09 08:45:00,68.4,65.0,29.68,North,358,0.0,10.0,89,0.67,,,0.67,VWS V14.01,2013-07-09 13:45:00,
2013-07-09 08:50:00,68.4,65.0,29.69,NE,42,0.0,10.0,89,0.67,,,0.67,VWS V14.01,2013-07-09 13:50:00,
2013-07-09 08:55:00,68.5,65.1,29.69,East,81,1.0,10.0,89,0.67,,,0.67,VWS V14.01,2013-07-09 13:55:00,
2013-07-09 09:00:00,68.6,65.2,29.69,ESE,110,4.0,10.0,89,0.67,,,0.67,VWS V14.01,2013-07-09 14:00:00,
2013-07-09 09:05:00,68.8,65.4,29.70,ESE,114,3.0,10.0,89,0.04,,,0.67,VWS V14.01,2013-07-09 14:05:00,
2013-07-09 09:10:00,68.9,65.5,29.70,ESE,114,0.0,10.0,89,0.04,,,0.67,VWS V14.01,2013-07-09 14:10:00,
2013-07-09 09:15:00,69.0,65.9,29.72,ESE,114,3.0,10.0,90,0.04,,,0.67,VWS V14.01,2013-07-09 14:15:00,
2013-07-09 09:20:00,69.2,66.2,29.75,South,171,6.0,12.0,90,0.04,,,0.67,VWS V14.01,2013-07-09 14:20:00,
2013-07-09 09:25:00,69.4,66.3,29.77,SSW,196,4.0,12.0,90,0.04,,,0.67,VWS V14.01,2013-07-09 14:25:00,
2013-07-09 09:30:00,69.6,66.5,29.77,SSE,158,5.0,14.0,90,0.04,,,0.67,VWS V14.01,2013-07-09 14:30:00,
2013-07-09 09:35:00,69.8,66.7,29.77,SSE,168,4.0,7.0,90,0.00,,,0.67,VWS V14.01,2013-07-09 14:35:00,
2013-07-09 09:41:00,70.2,67.1,29.78,South,175,4.0,9.0,90,0.00,,,0.67,VWS V14.01,2013-07-09 14:41:00,
2013-07-09 09:46:00,70.8,67.7,29.78,SSE,160,1.0,12.0,90,0.00,,,0.67,VWS V14.01,2013-07-09 14:46:00,
2013-07-09 09:51:00,71.0,67.9,29.78,ESE,119,5.0,12.0,90,0.00,,,0.67,VWS V14.01,2013-07-09 14:51:00,
2013-07-09 09:56:00,71.1,68.0,29.78,SE,142,6.0,12.0,90,0.00,,,0.67,VWS V14.01,2013-07-09 14:56:00,
2013-07-09 10:01:00,71.6,68.5,29.78,South,189,7.0,12.0,90,0.00,,,0.67,VWS V14.01,2013-07-09 15:01:00,
2013-07-09 10:06:00,71.6,68.5,29.78,South,183,6.0,12.0,90,0.00,,,0.67,VWS V14.01,2013-07-09 15:06:00,
2013-07-09 10:11:00,71.4,68.3,29.78,South,179,4.0,12.0,90,0.00,,,0.67,VWS V14.01,2013-07-09 15:11:00,
2013-07-09 10:16:00,71.6,68.2,29.79,SSE,164,0.0,12.0,89,0.00,,,0.67,VWS V14.01,2013-07-09 15:16:00,
2013-07-09 10:21:00,72.2,68.8,29.79,South,179,3.0,12.0,89,0.00,,,0.67,VWS V14.01,2013-07-09 15:21:00,
2013-07-09 10:26:00,72.7,69.3,29.79,ESE,122,0.0,13.0,89,0.00,,,0.67,VWS V14.01,2013-07-09 15:26:00,
2013-07-09 10:31:00,73.2,69.4,29.79,South,179,2.0,6.0,88,0.00,,,0.67,VWS V14.01,2013-07-09 15:31:00,
2013-07-09 10:36:00,73.7,69.3,29.79,South,169,0.0,9.0,86,0.00,,,0.67,VWS V14.01,2013-07-09 15:36:00,
2013-07-09 10:41:00,73.8,68.7,29.79,South,177,5.0,11.0,84,0.00,,,0.67,VWS V14.01,2013-07-09 15:41:00,
2013-07-09 10:46:00,74.2,69.1,29.79,South,170,6.0,11.0,84,0.00,,,0.67,VWS V14.01,2013-07-09 15:46:00,
2013-07-09 10:51:00,74.6,68.8,29.79,SSW,194,6.0,11.0,82,0.00,,,0.67,VWS V14.01,2013-07-09 15:51:00,
2013-07-09 10:56:00,75.3,69.4,29.79,South,178,7.0,11.0,82,0.00,,,0.67,VWS V14.01,2013-07-09 15:56:00,
2013-07-09 11:01:00,75.9,68.9,29.79,South,171,2.0,7.0,79,0.00,,,0.67,VWS V14.01,2013-07-09 16:01:00,
2013-07-09 11:06:00,76.3,69.3,29.79,South,178,2.0,14.0,79,0.00,,,0.67,VWS V14.01,2013-07-09 16:06:00,
2013-07-09 11:11:00,76.8,68.7,29.79,South,171,6.0,14.0,76,0.00,,,0.67,VWS V14.01,2013-07-09 16:11:00,
2013-07-09 11:16:00,76.9,68.8,29.79,South,169,2.0,14.0,76,0.00,,,0.67,VWS V14.01,2013-07-09 16:16:00,
2013-07-09 11:21:00,77.5,69.0,29.79,SE,136,4.0,14.0,75,0.00,,,0.67,VWS V14.01,2013-07-09 16:21:00,
2013-07-09 11:26:00,77.9,69.3,29.79,South,182,8.0,14.0,75,0.00,,,0.67,VWS V14.01,2013-07-09 16:26:00,
2013-07-09 11:32:00,78.5,69.1,29.79,South,191,5.0,7.0,73,0.00,,,0.67,VWS V14.01,2013-07-09 16:32:00,
2013-07-09 11:37:00,79.0,69.2,29.79,South,190,11.0,13.0,72,0.00,,,0.67,VWS V14.01,2013-07-09 16:37:00,
2013-07-09 11:42:00,79.0,68.8,29.80,South,184,6.0,13.0,71,0.00,,,0.67,VWS V14.01,2013-07-09 16:42:00,
2013-07-09 11:47:00,78.8,69.0,29.80,South,171,6.0,13.0,72,0.00,,,0.67,VWS V14.01,2013-07-09 16:47:00,
2013-07-09 11:52:00,78.9,69.1,29.80,WSW,254,13.0,17.0,72,0.00,,,0.67,VWS V14.01,2013-07-09 16:52:00,
2013-07-09 11:57:00,78.7,68.1,29.80,SSW,193,4.0,17.0,70,0.00,,,0.67,VWS V14.01,2013-07-09 16:57:00,
2013-07-09 12:00:00,78.8,68.6,29.80,SSE,161,10.0,17.0,71,0.00,,,0.67,VWS V15.00,2013-07-09 17:00:00,
2013-07-09 12:02:00,78.9,69.1,29.80,South,185,9.0,10.0,72,0.00,,,0.67,VWS V14.01,2013-07-09 17:02:00,
2013-07-09 12:07:00,79.3,68.7,29.80,South,174,13.0,16.0,70,0.00,,,0.67,VWS V14.01,2013-07-09 17:07:00,
2013-07-09 12:12:00,79.2,68.6,29.80,WSW,258,4.0,16.0,70,0.00,,,0.67,VWS V14.01,2013-07-09 17:12:00,
2013-07-09 12:17:00,78.7,68.5,29.79,WSW,254,6.0,16.0,71,0.00,,,0.67,VWS V14.01,2013-07-09 17:17:00,
2013-07-09 12:22:00,78.7,68.9,29.79,South,187,12.0,17.0,72,0.00,,,0.67,VWS V14.01,2013-07-09 17:22:00,
2013-07-09 12:27:00,78.9,68.7,29.79,SSW,194,10.0,17.0,71,0.00,,,0.67,VWS V14.01,2013-07-09 17:27:00,
2013-07-09 12:30:00,78.8,68.6,29.79,South,181,6.0,17.0,71,0.00,,,0.67,VWS V15.00,2013-07-09 17:30:00,
2013-07-09 12:32:00,78.8,68.6,29.80,WSW,257,4.0,9.0,71,0.00,,,0.67,VWS V14.01,2013-07-09 17:32:00,
2013-07-09 12:37:00,78.4,68.2,29.79,NNW,333,0.0,12.0,71,0.00,,,0.67,VWS V14.01,2013-07-09 17:37:00,
2013-07-09 12:42:00,78.0,67.8,29.79,SSW,192,14.0,14.0,71,0.00,,,0.67,VWS V14.01,2013-07-09 17:42:00,
2013-07-09 12:47:00,77.7,68.0,29.79,WSW,245,5.0,15.0,72,0.00,,,0.67,VWS V14.01,2013-07-09 17:47:00,
2013-07-09 12:52:00,77.8,68.5,29.79,West,267,1.0,15.0,73,0.00,,,0.67,VWS V14.01,2013-07-09 17:52:00,
2013-07-09 12:57:00,78.1,68.3,29.79,South,173,2.0,15.0,72,0.00,,,0.67,VWS V14.01,2013-07-09 17:57:00,
2013-07-09 13:00:00,78.2,68.4,29.79,West,273,6.0,17.0,72,0.00,,,0.67,VWS V15.00,2013-07-09 18:00:00,
2013-07-09 13:02:00,78.1,68.3,29.79,South,171,9.0,16.0,72,0.00,,,0.67,VWS V14.01,2013-07-09 18:02:00,
2013-07-09 13:07:00,78.2,68.8,29.79,WSW,245,1.0,17.0,73,0.00,,,0.67,VWS V14.01,2013-07-09 18:07:00,
2013-07-09 13:12:00,78.3,68.9,29.79,West,275,15.0,17.0,73,0.00,,,0.67,VWS V14.01,2013-07-09 18:12:00,
2013-07-09 13:17:00,78.5,69.5,29.78,West,278,5.0,17.0,74,0.00,,,0.67,VWS V14.01,2013-07-09 18:17:00,
2013-07-09 13:22:00,79.2,69.4,29.78,SSW,194,5.0,17.0,72,0.00,,,0.67,VWS V14.01,2013-07-09 18:22:00,
2013-07-09 13:27:00,79.7,69.5,29.78,SSW,192,6.0,17.0,71,0.00,,,0.67,VWS V14.01,2013-07-09 18:27:00,
2013-07-09 13:33:00,79.8,69.6,29.78,West,260,3.0,10.0,71,0.00,,,0.67,VWS V14.01,2013-07-09 18:33:00,
2013-07-09 13:38:00,79.7,69.5,29.78,SSW,194,4.0,13.0,71,0.00,,,0.67,VWS V14.01,2013-07-09 18:38:00,
2013-07-09 13:43:00,79.9,69.7,29.78,WSW,250,5.0,16.0,71,0.00,,,0.67,VWS V14.01,2013-07-09 18:43:00,
2013-07-09 13:48:00,80.5,70.7,29.78,WSW,258,11.0,16.0,72,0.00,,,0.67,VWS V14.01,2013-07-09 18:48:00,
2013-07-09 13:53:00,81.1,71.2,29.78,South,191,6.0,16.0,72,0.00,,,0.67,VWS V14.01,2013-07-09 18:53:00,
2013-07-09 13:58:00,81.3,70.6,29.78,WNW,300,7.0,16.0,70,0.00,,,0.67,VWS V14.01,2013-07-09 18:58:00,
2013-07-09 14:03:00,81.3,70.6,29.78,SSW,194,3.0,13.0,70,0.00,,,0.67,VWS V14.01,2013-07-09 19:03:00,
2013-07-09 14:08:00,81.1,70.4,29.78,West,277,4.0,13.0,70,0.00,,,0.67,VWS V14.01,2013-07-09 19:08:00,
2013-07-09 14:13:00,81.2,70.5,29.78,NNE,15,1.0,15.0,70,0.00,,,0.67,VWS V14.01,2013-07-09 19:13:00,
2013-07-09 14:18:00,81.3,70.6,29.78,SSW,194,1.0,15.0,70,0.00,,,0.67,VWS V14.01,2013-07-09 19:18:00,
2013-07-09 14:23:00,81.7,71.0,29.78,West,268,6.0,15.0,70,0.00,,,0.67,VWS V14.01,2013-07-09 19:23:00,
2013-07-09 14:28:00,82.1,70.9,29.78,WNW,288,2.0,15.0,69,0.00,,,0.67,VWS V14.01,2013-07-09 19:28:00,
2013-07-09 14:33:00,81.9,70.7,29.78,West,275,1.0,9.0,69,0.00,,,0.67,VWS V14.01,2013-07-09 19:33:00,
2013-07-09 14:38:00,82.2,71.0,29.78,West,274,9.0,14.0,69,0.00,,,0.67,VWS V14.01,2013-07-09 19:38:00,
2013-07-09 14:43:00,82.2,71.0,29.78,West,261,13.0,15.0,69,0.00,,,0.67,VWS V14.01,2013-07-09 19:43:00,
2013-07-09 14:48:00,82.3,71.1,29.78,West,263,9.0,17.0,69,0.00,,,0.67,VWS V14.01,2013-07-09 19:48:00,
2013-07-09 14:53:00,82.9,71.3,29.78,West,271,2.0,20.0,68,0.00,,,0.67,VWS V14.01,2013-07-09 19:53:00,
2013-07-09 14:58:00,83.3,71.2,29.78,ENE,58,0.0,20.0,67,0.00,,,0.67,VWS V14.01,2013-07-09 19:58:00,
2013-07-09 15:00:00,83.2,71.1,29.78,WSW,245,4.0,20.0,67,0.00,,,0.67,VWS V15.00,2013-07-09 20:00:00,
2013-07-09 15:04:00,83.0,70.9,29.78,West,274,2.0,11.0,67,0.00,,,0.67,VWS V14.01,2013-07-09 20:04:00,
2013-07-09 15:09:00,82.7,70.6,29.78,WNW,296,3.0,17.0,67,0.00,,,0.67,VWS V14.01,2013-07-09 20:09:00,
2013-07-09 15:14:00,82.8,71.6,29.78,NW,315,4.0,18.0,69,0.00,,,0.67,VWS V14.01,2013-07-09 20:14:00,
2013-07-09 15:19:00,83.3,71.6,29.78,West,276,5.0,18.0,68,0.00,,,0.67,VWS V14.01,2013-07-09 20:19:00,
2013-07-09 15:24:00,83.4,70.9,29.78,West,278,3.0,18.0,66,0.00,,,0.67,VWS V14.01,2013-07-09 20:24:00,
2013-07-09 15:29:00,83.2,71.6,29.78,WSW,258,0.0,18.0,68,0.00,,,0.67,VWS V14.01,2013-07-09 20:29:00,
2013-07-09 15:34:00,83.2,71.1,29.78,WNW,294,4.0,14.0,67,0.00,,,0.67,VWS V14.01,2013-07-09 20:34:00,
2013-07-09 15:39:00,83.2,71.6,29.78,SSW,194,0.0,14.0,68,0.00,,,0.67,VWS V14.01,2013-07-09 20:39:00,
2013-07-09 15:44:00,83.2,71.6,29.78,SSW,193,4.0,14.0,68,0.00,,,0.67,VWS V14.01,2013-07-09 20:44:00,
2013-07-09 15:49:00,83.3,71.2,29.78,WSW,255,4.0,14.0,67,0.00,,,0.67,VWS V14.01,2013-07-09 20:49:00,
2013-07-09 15:54:00,83.6,71.9,29.78,South,186,4.0,14.0,68,0.00,,,0.67,VWS V14.01,2013-07-09 20:54:00,
2013-07-09 15:59:00,83.5,71.4,29.78,West,273,1.0,14.0,67,0.00,,,0.67,VWS V14.01,2013-07-09 20:59:00,
2013-07-09 16:04:00,83.4,71.3,29.78,South,190,0.0,12.0,67,0.00,,,0.67,VWS V14.01,2013-07-09 21:04:00,
2013-07-09 16:09:00,83.6,71.5,29.78,WSW,255,7.0,14.0,67,0.00,,,0.67,VWS V14.01,2013-07-09 21:09:00,
2013-07-09 16:14:00,84.2,72.1,29.78,South,188,4.0,18.0,67,0.00,,,0.67,VWS V14.01,2013-07-09 21:14:00,
2013-07-09 16:19:00,84.4,71.4,29.78,West,269,7.0,18.0,65,0.00,,,0.67,VWS V14.01,2013-07-09 21:19:00,
2013-07-09 16:25:00,84.4,71.8,29.78,WSW,250,10.0,20.0,66,0.00,,,0.67,VWS V14.01,2013-07-09 21:25:00,
2013-07-09 16:30:00,84.5,71.9,29.78,West,277,4.0,20.0,66,0.00,,,0.67,VWS V14.01,2013-07-09 21:30:00,
2013-07-09 16:35:00,84.2,71.2,29.78,South,169,0.0,16.0,65,0.00,,,0.67,VWS V14.01,2013-07-09 21:35:00,
2013-07-09 16:40:00,84.1,72.0,29.78,West,271,12.0,18.0,67,0.00,,,0.67,VWS V14.01,2013-07-09 21:40:00,
2013-07-09 16:45:00,84.5,71.4,29.79,West,267,5.0,18.0,65,0.00,,,0.67,VWS V14.01,2013-07-09 21:45:00,
2013-07-09 16:50:00,84.7,71.6,29.79,SSW,194,7.0,18.0,65,0.00,,,0.67,VWS V14.01,2013-07-09 21:50:00,
2013-07-09 16:55:00,84.8,71.7,29.79,WSW,254,5.0,18.0,65,0.00,,,0.67,VWS V14.01,2013-07-09 21:55:00,
2013-07-09 17:00:00,84.8,71.3,29.79,WSW,258,4.0,18.0,64,0.00,,,0.67,VWS V14.01,2013-07-09 22:00:00,
2013-07-09 17:05:00,84.8,71.3,29.79,West,281,1.0,15.0,64,0.00,,,0.67,VWS V14.01,2013-07-09 22:05:00,
2013-07-09 17:10:00,84.7,71.6,29.79,NW,312,3.0,15.0,65,0.00,,,0.67,VWS V14.01,2013-07-09 22:10:00,
2013-07-09 17:15:00,85.0,71.5,29.79,West,269,3.0,15.0,64,0.00,,,0.67,VWS V14.01,2013-07-09 22:15:00,
2013-07-09 17:20:00,85.2,71.7,29.79,West,268,4.0,15.0,64,0.00,,,0.67,VWS V14.01,2013-07-09 22:20:00,
2013-07-09 17:25:00,85.0,71.9,29.79,West,275,5.0,16.0,65,0.00,,,0.67,VWS V14.01,2013-07-09 22:25:00,
2013-07-09 17:30:00,84.7,71.6,29.79,NW,304,3.0,16.0,65,0.00,,,0.67,VWS V14.01,2013-07-09 22:30:00,
2013-07-09 17:35:00,84.7,72.1,29.79,South,185,4.0,15.0,66,0.00,,,0.67,VWS V14.01,2013-07-09 22:35:00,
2013-07-09 17:40:00,84.8,71.7,29.79,West,273,8.0,15.0,65,0.00,,,0.67,VWS V14.01,2013-07-09 22:40:00,
2013-07-09 17:45:00,84.8,71.7,29.79,West,263,3.0,15.0,65,0.00,,,0.67,VWS V14.01,2013-07-09 22:45:00,
2013-07-09 17:50:00,84.9,72.3,29.79,West,260,10.0,15.0,66,0.00,,,0.67,VWS V14.01,2013-07-09 22:50:00,
2013-07-09 17:56:00,85.0,71.9,29.79,SSW,192,17.0,17.0,65,0.00,,,0.67,VWS V14.01,2013-07-09 22:56:00,
2013-07-09 18:00:00,84.9,71.8,29.79,WSW,250,4.0,17.0,65,0.00,,,0.67,VWS V15.00,2013-07-09 23:00:00,
2013-07-09 18:01:00,84.9,71.8,29.79,WSW,245,4.0,17.0,65,0.00,,,0.67,VWS V14.01,2013-07-09 23:01:00,
2013-07-09 18:06:00,85.0,71.5,29.79,WSW,256,0.0,14.0,64,0.00,,,0.67,VWS V14.01,2013-07-09 23:06:00,
2013-07-09 18:11:00,85.1,71.6,29.79,WNW,300,5.0,16.0,64,0.00,,,0.67,VWS V14.01,2013-07-09 23:11:00,
2013-07-09 18:16:00,84.9,71.4,29.79,WSW,250,2.0,16.0,64,0.00,,,0.67,VWS V14.01,2013-07-09 23:16:00,
2013-07-09 18:21:00,84.6,71.1,29.79,NW,306,10.0,16.0,64,0.00,,,0.67,VWS V14.01,2013-07-09 23:21:00,
2013-07-09 18:26:00,84.3,70.8,29.79,West,261,3.0,16.0,64,0.00,,,0.67,VWS V14.01,2013-07-09 23:26:00,
2013-07-09 18:31:00,84.3,71.3,29.79,WNW,294,6.0,8.0,65,0.00,,,0.67,VWS V14.01,2013-07-09 23:31:00,
2013-07-09 18:36:00,84.3,70.8,29.80,West,260,2.0,11.0,64,0.00,,,0.67,VWS V14.01,2013-07-09 23:36:00,
2013-07-09 18:41:00,84.5,71.0,29.80,West,269,6.0,18.0,64,0.00,,,0.67,VWS V14.01,2013-07-09 23:41:00,
2013-07-09 18:46:00,84.4,70.9,29.80,West,266,8.0,18.0,64,0.00,,,0.67,VWS V14.01,2013-07-09 23:46:00,
2013-07-09 18:51:00,84.3,70.8,29.80,WNW,301,1.0,18.0,64,0.00,,,0.67,VWS V14.01,2013-07-09 23:51:00,
2013-07-09 18:56:00,84.1,71.1,29.80,SSW,194,2.0,18.0,65,0.00,,,0.67,VWS V14.01,2013-07-09 23:56:00,
2013-07-09 19:01:00,84.0,71.0,29.80,South,179,11.0,12.0,65,0.00,,,0.67,VWS V14.01,2013-07-10 00:01:00,
2013-07-09 19:06:00,84.0,71.0,29.80,WSW,255,2.0,12.0,65,0.00,,,0.67,VWS V14.01,2013-07-10 00:06:00,
2013-07-09 19:11:00,84.0,71.0,29.80,West,269,12.0,13.0,65,0.00,,,0.67,VWS V14.01,2013-07-10 00:11:00,
2013-07-09 19:16:00,84.0,71.0,29.81,North,359,9.0,15.0,65,0.00,,,0.67,VWS V14.01,2013-07-10 00:16:00,
2013-07-09 19:21:00,83.6,70.1,29.81,West,265,4.0,15.0,64,0.00,,,0.67,VWS V14.01,2013-07-10 00:21:00,
2013-07-09 19:26:00,83.1,70.1,29.81,West,269,3.0,15.0,65,0.00,,,0.67,VWS V14.01,2013-07-10 00:26:00,
2013-07-09 19:30:00,83.0,70.0,29.81,WNW,282,11.0,15.0,65,0.00,,,0.67,VWS V15.00,2013-07-10 00:30:00,
2013-07-09 19:32:00,82.9,69.9,29.81,WSW,250,6.0,15.0,65,0.00,,,0.67,VWS V14.01,2013-07-10 00:32:00,
2013-07-09 19:37:00,82.9,69.9,29.81,WNW,291,2.0,15.0,65,0.00,,,0.67,VWS V14.01,2013-07-10 00:37:00,
2013-07-09 19:42:00,82.8,69.8,29.81,WNW,291,1.0,15.0,65,0.00,,,0.67,VWS V14.01,2013-07-10 00:42:00,
2013-07-09 19:47:00,82.6,69.2,29.81,NW,307,4.0,15.0,64,0.00,,,0.67,VWS V14.01,2013-07-10 00:47:00,
2013-07-09 19:52:00,82.5,69.6,29.81,West,271,0.0,15.0,65,0.00,,,0.67,VWS V14.01,2013-07-10 00:52:00,
2013-07-09 19:57:00,82.4,69.0,29.81,NNW,327,3.0,15.0,64,0.00,,,0.67,VWS V14.01,2013-07-10 00:57:00,
2013-07-09 20:02:00,82.1,69.2,29.81,SSW,194,1.0,3.0,65,0.00,,,0.67,VWS V14.01,2013-07-10 01:02:00,
2013-07-09 20:07:00,81.7,68.8,29.81,WNW,296,0.0,6.0,65,0.00,,,0.67,VWS V14.01,2013-07-10 01:07:00,
2013-07-09 20:12:00,81.5,69.1,29.82,West,275,4.0,7.0,66,0.00,,,0.67,VWS V14.01,2013-07-10 01:12:00,
2013-07-09 20:17:00,81.3,68.9,29.82,West,275,3.0,9.0,66,0.00,,,0.67,VWS V14.01,2013-07-10 01:17:00,
2013-07-09 20:22:00,81.0,69.0,29.82,WNW,298,0.0,9.0,67,0.00,,,0.67,VWS V14.01,2013-07-10 01:22:00,
2013-07-09 20:27:00,80.7,69.2,29.82,West,270,0.0,9.0,68,0.00,,,0.67,VWS V14.01,2013-07-10 01:27:00,
2013-07-09 20:32:00,80.3,68.8,29.83,West,266,1.0,7.0,68,0.00,,,0.67,VWS V14.01,2013-07-10 01:32:00,
2013-07-09 20:37:00,79.8,68.3,29.83,West,271,0.0,7.0,68,0.00,,,0.67,VWS V14.01,2013-07-10 01:37:00,
2013-07-09 20:42:00,79.4,68.3,29.83,WSW,250,4.0,7.0,69,0.00,,,0.67,VWS V14.01,2013-07-10 01:42:00,
2013-07-09 20:47:00,78.9,67.9,29.83,WSW,254,2.0,12.0,69,0.00,,,0.67,VWS V14.01,2013-07-10 01:47:00,
2013-07-09 20:52:00,78.6,67.6,29.83,WSW,256,5.0,12.0,69,0.00,,,0.67,VWS V14.01,2013-07-10 01:52:00,
2013-07-09 20:57:00,78.3,67.3,29.83,West,276,0.0,12.0,69,0.00,,,0.67,VWS V14.01,2013-07-10 01:57:00,
2013-07-09 21:02:00,78.0,67.4,29.82,WSW,245,4.0,4.0,70,0.00,,,0.67,VWS V14.01,2013-07-10 02:02:00,
2013-07-09 21:07:00,77.7,67.1,29.82,WSW,258,0.0,5.0,70,0.00,,,0.67,VWS V14.01,2013-07-10 02:07:00,
2013-07-09 21:12:00,77.5,66.9,29.83,West,279,1.0,5.0,70,0.00,,,0.67,VWS V14.01,2013-07-10 02:12:00,
2013-07-09 21:17:00,77.2,67.1,29.83,West,279,0.0,5.0,71,0.00,,,0.67,VWS V14.01,2013-07-10 02:17:00,
2013-07-09 21:22:00,76.9,66.8,29.83,West,279,0.0,5.0,71,0.00,,,0.67,VWS V14.01,2013-07-10 02:22:00,
2013-07-09 21:28:00,76.7,67.0,29.83,West,279,0.0,5.0,72,0.00,,,0.67,VWS V14.01,2013-07-10 02:28:00,
2013-07-09 21:33:00,76.4,67.1,29.83,WSW,245,0.0,4.0,73,0.00,,,0.67,VWS V14.01,2013-07-10 02:33:00,
2013-07-09 21:38:00,76.1,66.8,29.83,WSW,256,0.0,4.0,73,0.00,,,0.67,VWS V14.01,2013-07-10 02:38:00,
2013-07-09 21:43:00,75.9,66.6,29.84,WSW,258,0.0,5.0,73,0.00,,,0.67,VWS V14.01,2013-07-10 02:43:00,
2013-07-09 21:48:00,75.7,66.8,29.84,WNW,282,0.0,5.0,74,0.00,,,0.67,VWS V14.01,2013-07-10 02:48:00,
2013-07-09 21:53:00,75.5,66.6,29.85,WNW,289,1.0,7.0,74,0.00,,,0.67,VWS V14.01,2013-07-10 02:53:00,
2013-07-09 21:58:00,75.4,66.5,29.85,WNW,301,0.0,7.0,74,0.00,,,0.67,VWS V14.01,2013-07-10 02:58:00,
2013-07-09 22:03:00,75.3,66.4,29.85,WNW,300,1.0,3.0,74,0.00,,,0.67,VWS V14.01,2013-07-10 03:03:00,
2013-07-09 22:08:00,75.2,66.3,29.85,West,281,1.0,10.0,74,0.00,,,0.67,VWS V14.01,2013-07-10 03:08:00,
2013-07-09 22:13:00,75.1,65.9,29.86,WNW,291,3.0,10.0,73,0.00,,,0.67,VWS V14.01,2013-07-10 03:13:00,
2013-07-09 22:18:00,75.1,65.5,29.86,SE,142,3.0,13.0,72,0.00,,,0.67,VWS V14.01,2013-07-10 03:18:00,
2013-07-09 22:23:00,75.1,65.1,29.87,WNW,302,5.0,15.0,71,0.00,,,0.67,VWS V14.01,2013-07-10 03:23:00,
2013-07-09 22:28:00,75.0,65.0,29.87,WNW,287,0.0,15.0,71,0.00,,,0.67,VWS V14.01,2013-07-10 03:28:00,
2013-07-09 22:30:00,74.9,64.9,29.87,West,278,0.0,15.0,71,0.00,,,0.67,VWS V15.00,2013-07-10 03:30:00,
2013-07-09 22:33:00,74.8,65.2,29.87,NW,326,5.0,12.0,72,0.00,,,0.67,VWS V14.01,2013-07-10 03:33:00,
2013-07-09 22:38:00,74.5,64.9,29.87,South,173,6.0,12.0,72,0.00,,,0.67,VWS V14.01,2013-07-10 03:38:00,
2013-07-09 22:43:00,74.2,65.0,29.87,NW,314,0.0,12.0,73,0.00,,,0.67,VWS V14.01,2013-07-10 03:43:00,
2013-07-09 22:48:00,74.0,64.8,29.87,West,279,1.0,12.0,73,0.00,,,0.67,VWS V14.01,2013-07-10 03:48:00,
2013-07-09 22:53:00,73.7,64.9,29.87,WNW,301,2.0,12.0,74,0.00,,,0.67,VWS V14.01,2013-07-10 03:53:00,
2013-07-09 22:58:00,73.4,64.6,29.87,NW,305,3.0,12.0,74,0.00,,,0.67,VWS V14.01,2013-07-10 03:58:00,
2013-07-09 23:00:00,73.3,64.5,29.87,NW,305,2.0,12.0,74,0.00,,,0.67,VWS V15.00,2013-07-10 04:00:00,
2013-07-09 23:01:00,73.3,64.5,29.87,NW,305,2.0,12.0,74,0.00,,,0.67,VWS V14.01,2013-07-10 04:01:00,
2013-07-09 23:05:00,73.0,64.2,29.87,NW,307,0.0,5.0,74,0.00,,,0.67,VWS V14.01,2013-07-10 04:05:00,
2013-07-09 23:07:00,72.9,64.1,29.87,West,277,0.0,5.0,74,0.00,,,0.67,VWS V14.01,2013-07-10 04:07:00,
2013-07-09 23:12:00,72.7,63.9,29.87,NW,319,7.0,9.0,74,0.00,,,0.67,VWS V14.01,2013-07-10 04:12:00,
2013-07-09 23:17:00,72.5,64.1,29.88,NW,306,0.0,12.0,75,0.00,,,0.67,VWS V14.01,2013-07-10 04:17:00,
2013-07-09 23:22:00,72.3,63.9,29.88,WNW,294,6.0,12.0,75,0.00,,,0.67,VWS V14.01,2013-07-10 04:22:00,
2013-07-09 23:27:00,72.1,63.4,29.88,WSW,250,0.0,12.0,74,0.00,,,0.67,VWS V14.01,2013-07-10 04:27:00,
2013-07-09 23:32:00,71.9,63.5,29.88,WNW,297,5.0,11.0,75,0.00,,,0.67,VWS V14.01,2013-07-10 04:32:00,
2013-07-09 23:37:00,71.8,63.5,29.89,NW,321,5.0,16.0,75,0.00,,,0.67,VWS V14.01,2013-07-10 04:37:00,
2013-07-09 23:42:00,71.7,63.4,29.89,WNW,301,5.0,16.0,75,0.00,,,0.67,VWS V14.01,2013-07-10 04:42:00,
2013-07-09 23:47:00,71.5,63.2,29.89,NNW,335,3.0,16.0,75,0.00,,,0.67,VWS V14.01,2013-07-10 04:47:00,
2013-07-09 23:52:00,71.4,63.1,29.89,WNW,286,1.0,16.0,75,0.00,,,0.67,VWS V14.01,2013-07-10 04:52:00,
2013-07-09 23:57:00,71.2,63.3,29.89,WNW,284,5.0,16.0,76,0.00,,,0.67,VWS V14.01,2013-07-10 04:57:00,